Weather History for Valparaiso, FL

Change the Weather History Date:

Wednesday, July 10, 2013

  Actual Average Record
Temperature  
Mean Temperature 82 °F -  
Max Temperature 89 °F 92 °F 98 °F (1962)
Min Temperature 74 °F 71 °F 63 °F (1963)
Cooling Degree Days 16    
Growing Degree Days 32 (Base 50)    
Moisture  
Dew Point 74 °F    
Average Humidity 83    
Maximum Humidity 95    
Minimum Humidity 57    
Precipitation  
Precipitation 0.05 in - - ()
Sea Level Pressure  
Sea Level Pressure 30.07 in    
Wind  
Wind Speed 3 mph (WNW)    
Max Wind Speed 14 mph    
Max Gust Speed -    
Visibility 10 miles    
Events Rain , Thunderstorm    
Averages and records for this station are not official NWS values.
T = Trace of Precipitation, MM = Missing Value Source: NWS Daily Summary

Daily Weather History Graph

Daily Weather History Graph

Search for Another Location

Airport:

Trip Planner

Search our weather history database for the weather conditions in past years. The results will help you decide how hot, cold, wet, or windy it might be!

Date:

Astronomy

Jul. 10, 2013 Rise Set
Actual Time 5:51 AM CDT 7:51 PM CDT
Civil Twilight 5:24 AM CDT 8:18 PM CDT
Nautical Twilight 4:51 AM CDT 8:51 PM CDT
Astronomical Twilight 4:16 AM CDT 9:26 PM CDT
Moon 7:59 AM CDT (7/10) 9:15 PM CDT (7/10)
Length of Visible Light 14h 54m
Length of Day
13h 59m
Waxing Crescent, 5% of the Moon is Illuminated
Jul 10
Waxing Crescent
Jul 15
First Quarter
Jul 22
Full
Jul 29
Last Quarter
Aug 6
New

Hourly Weather History & Observations

Time (CDT) Temp. Heat Index Dew Point Humidity Pressure Visibility Wind Dir Wind Speed Gust Speed Precip Events Conditions
12:55 AM 76.3 °F - 73.6 °F 91% 30.12 in 10.0 mi Calm Calm - N/A   Scattered Clouds
1:55 AM 76.1 °F - 73.6 °F 92% 30.10 in 10.0 mi Calm Calm - N/A   Partly Cloudy
2:55 AM 74.7 °F - 72.9 °F 94% 30.10 in 10.0 mi North 1.2 mph - N/A   Partly Cloudy
3:55 AM 75.0 °F - 72.9 °F 93% 30.10 in 10.0 mi Calm Calm - N/A   Partly Cloudy
4:55 AM 74.7 °F - 72.5 °F 93% 30.10 in 10.0 mi South 1.2 mph - N/A   Partly Cloudy
5:55 AM 74.1 °F - 72.3 °F 94% 30.12 in 8.0 mi Calm Calm - N/A   Scattered Clouds
6:55 AM 75.2 °F - 73.4 °F 94% 30.13 in 8.0 mi NW 3.5 mph - N/A   Scattered Clouds
7:55 AM 77.7 °F - 74.1 °F 89% 30.14 in 10.0 mi NW 3.5 mph - N/A   Mostly Cloudy
8:55 AM 83.3 °F 89.3 °F 73.2 °F 71% 30.13 in 10.0 mi NNW 6.9 mph - N/A   Mostly Cloudy
9:56 AM 86.7 °F 93.3 °F 72.5 °F 62% 30.13 in 10.0 mi NNW 9.2 mph - N/A   Mostly Cloudy
10:06 AM 87.8 °F 95.6 °F 73.4 °F 62% 30.11 in 10.0 mi North 9.2 mph - N/A   Mostly Cloudy
10:55 AM 88.0 °F 95.1 °F 72.5 °F 60% 30.13 in 10.0 mi WNW 6.9 mph - N/A   Mostly Cloudy
11:35 AM 87.8 °F 95.6 °F 73.4 °F 62% 30.09 in 10.0 mi Variable 5.8 mph - N/A   Mostly Cloudy
11:55 AM 89.2 °F 96.4 °F 72.0 °F 57% 30.10 in 10.0 mi NW 5.8 mph - N/A   Mostly Cloudy
12:48 PM 87.8 °F 97.6 °F 75.2 °F 66% 30.06 in 10.0 mi South 11.5 mph - N/A   Mostly Cloudy
12:55 PM 88.2 °F 99.0 °F 75.7 °F 67% 30.07 in 10.0 mi South 13.8 mph - N/A   Mostly Cloudy
1:42 PM 86.0 °F 96.9 °F 77.0 °F 74% 30.04 in 10.0 mi South 13.8 mph - N/A Thunderstorm Thunderstorm
1:55 PM 88.2 °F 99.0 °F 75.7 °F 67% 30.06 in 7.0 mi WNW 5.8 mph - N/A Rain , Thunderstorm Light Thunderstorms and Rain
2:36 PM 82.4 °F 92.4 °F 78.8 °F 89% 30.03 in 10.0 mi NW 8.1 mph - N/A Thunderstorm Thunderstorm
2:55 PM 78.3 °F - 73.4 °F 85% 30.07 in 10.0 mi North 8.1 mph - N/A Thunderstorm Thunderstorm
3:06 PM 77.0 °F - 73.4 °F 89% 30.04 in 10.0 mi NNW 5.8 mph - N/A Rain , Thunderstorm Light Thunderstorms and Rain
3:55 PM 77.5 °F - 73.9 °F 89% 30.06 in 10.0 mi West 3.5 mph - 0.01 in Rain , Thunderstorm Light Rain
4:16 PM 77.0 °F - 73.4 °F 89% 30.03 in 10.0 mi Variable 3.5 mph - N/A Rain , Thunderstorm Light Thunderstorms and Rain
4:32 PM 77.0 °F - 73.4 °F 89% 30.04 in 10.0 mi West 2.3 mph - N/A   Light Drizzle
4:56 PM 77.4 °F - 72.5 °F 85% 30.04 in 10.0 mi WNW 2.3 mph - 0.01 in   Overcast
5:30 PM 77.0 °F - 73.4 °F 89% 30.04 in 10.0 mi West 2.3 mph - N/A   Light Drizzle
5:59 PM 77.4 °F - 74.1 °F 90% 30.05 in 10.0 mi Calm Calm - 0.03 in Rain Light Rain
6:55 PM 77.0 °F - 73.4 °F 89% 30.04 in 10.0 mi Calm Calm - 0.00 in   Overcast
7:55 PM 77.4 °F - 74.7 °F 91% 30.01 in 10.0 mi NE 3.5 mph - N/A   Overcast
8:58 PM 77.7 °F - 75.6 °F 93% 30.00 in 10.0 mi East 2.3 mph - N/A   Overcast
9:57 PM 77.0 °F - 75.4 °F 95% 30.00 in 10.0 mi West 1.2 mph - N/A   Overcast
10:55 PM 75.9 °F - 74.1 °F 94% 30.00 in 10.0 mi West 2.3 mph - N/A   Scattered Clouds
11:58 PM 75.4 °F - 72.1 °F 90% 30.01 in 10.0 mi Calm Calm - N/A   Scattered Clouds